STARLINK-31794, 59803

Orbit data source: Space-Track

STARLINK-31794, 59803 is a payload satellite owned by SpaceX/Seattle (US) in LEO that was launched on Sat, 18 May 2024 UTC via an FALCON 9 launch vehicle from the Air Force Eastern Test Range (AFETR). Payload-class satellites include a variety of spacecraft equipped with specific instruments for various scientific and technological missions. These include communications satellites like Starlink; space stations such as the ISS; scientific satellites like the Hubble; Earth observation satellites from companies like Planet Labs, Umbra, and HawkEye 360; GPS; miniature CubeSats for education and research; and military/defense satellites.

Loading next visibility...
Identifier
59803, 2024-093X
Orbit
LEO
Country
Flag of USUS
Related business
Manufacturer
SpaceX/Seattle
Mission
Operational Commercial Communications
Bus & Motor
STARLINK V2M, Unknown motor
Mass
730 kg wet, ~700 kg dry
Launch date (UTC)
2024-05-18 (2 years ago)
Launch vehicle
FALCON 9
Launch site
Air Force Eastern Test Range (AFETR)
Object type
Payload
Rocket body
Debris
Shape & HBR
Box + 2 Pan, 17.7 m
Radar Cross Section
33.884 m², Large (>1 m²)

Expand to show TLE details & history
Last TLE update: 1 day ago

TLE from 1 day ago
0 STARLINK-31794
1 59803U 24093X   26125.39031477  .00002038  00000-0  83560-4 0  9992
2 59803  43.0003 248.9695 0000909 250.8419 109.2334 15.27580775111436
Epoch: 2026-05-05T09:22Z
TLE epoch observation values (Epoch: 2026-05-05T09:22:03.196Z)
Latitude
-0.00002°
Longitude
-114.80969°
Altitude
483.028 km
Speed
7.626 km/s
True Right ascension
16h 35m 52s
True Declination
0° 00' 00"
Sunlit
Object was in full shadow at epoch
Visualization orbit readout
Latitude
Unknown
Longitude
Unknown
Altitude
Unknown
Speed
Unknown
Apparent Right ascension
Unknown
Apparent Declination
Unknown
Sunlit
N/A
Visualization observer readout
Local Sidereal Time
21:18:35
Azimuth
Unknown
Elevation
Unknown
Doppler factor
Unknown
Orbital elements
Apogee altitude
485.616 km
Perigee altitude
484.368 km
Semi-major axis
6,863.129 km
Eccentricity
0.00009
Inclination
43.0003°
RAAN
248.9695°
Arg. of periapsis
250.8419°
True anomaly
109.24323°
Mean anomaly
109.2334°
Eccentric anomaly
109.23832°
Mean motion
3.81733 °/min
Orbital period
94.31 mins
BSTAR
0.00008356
Loading maneuver chart data...
Computing Atmospheric mass density...
Loading historical data...
Loading historical data...
Loading historical data...
Loading historical data...
Loading historical data...
Loading historical data...
Loading historical data...

Documentation

Showing up to 5 results
|